BAW911U EDDF-EGLL

Flight info

Callsign BAW911U
Flight time 1h 6m
Altitude 36000
Route OBOKA3W/25C OBOKA Z29 TORNU DCT ABNED L980 LOGAN
Aircraft A321/M-SDE3FGHIRWY/LB1

Departure

Time 2026-05-04 17:55
Airport Frankfurt Main Airport (EDDF)

Arrival

Time 2026-05-04 19:01
Airport London Heathrow Airport (EGLL)
Time Latitude Longitude Altitude Speed Heading
2026-05-04 17:54 49.91460 8.21510 10979 ft 347 kts 303°
2026-05-04 17:55 49.92901 8.18516 11588 ft 350 kts 303°
2026-05-04 17:55 49.94473 8.15585 12224 ft 357 kts 311°
2026-05-04 17:55 49.96346 8.13007 12773 ft 362 kts 316°
2026-05-04 17:55 49.98270 8.10445 12938 ft 362 kts 316°
2026-05-04 17:56 50.00180 8.07894 12976 ft 362 kts 316°
2026-05-04 17:56 50.02092 8.05334 12975 ft 362 kts 316°
2026-05-04 17:56 50.04001 8.02777 13089 ft 366 kts 316°
2026-05-04 17:56 50.05782 8.00386 13752 ft 367 kts 316°
2026-05-04 17:57 50.07729 7.97774 14354 ft 369 kts 316°
2026-05-04 17:57 50.09659 7.95183 14920 ft 371 kts 316°
2026-05-04 17:57 50.11613 7.92553 15486 ft 374 kts 316°
2026-05-04 17:57 50.13594 7.89882 16031 ft 377 kts 316°
2026-05-04 17:58 50.15589 7.87189 16588 ft 380 kts 316°
2026-05-04 17:58 50.17606 7.84469 17117 ft 383 kts 316°
2026-05-04 17:58 50.19635 7.81731 17658 ft 387 kts 316°
2026-05-04 17:58 50.21676 7.78968 18188 ft 390 kts 316°
2026-05-04 17:59 50.23732 7.76182 18677 ft 393 kts 316°
2026-05-04 17:59 50.25963 7.73658 19139 ft 399 kts 326°
2026-05-04 17:59 50.31029 7.69994 19917 ft 406 kts 334°
2026-05-04 18:00 50.33628 7.68227 20005 ft 406 kts 333°
2026-05-04 18:00 50.36207 7.66467 20011 ft 406 kts 333°
2026-05-04 18:00 50.38800 7.64694 20011 ft 406 kts 333°
2026-05-04 18:00 50.41389 7.62920 20012 ft 406 kts 333°
2026-05-04 18:01 50.43950 7.61161 20009 ft 405 kts 333°
2026-05-04 18:01 50.46582 7.59348 20274 ft 408 kts 333°
2026-05-04 18:01 50.49182 7.57553 20780 ft 410 kts 333°
2026-05-04 18:02 50.54410 7.53927 21714 ft 414 kts 333°
2026-05-04 18:02 50.56952 7.51805 22161 ft 413 kts 324°
2026-05-04 18:02 50.59367 7.49332 22612 ft 415 kts 323°
2026-05-04 18:02 50.61796 7.46840 23061 ft 417 kts 324°
2026-05-04 18:03 50.64234 7.44342 23519 ft 420 kts 324°
2026-05-04 18:03 50.66684 7.41827 23916 ft 422 kts 323°
2026-05-04 18:03 50.69159 7.39282 24284 ft 424 kts 323°
2026-05-04 18:03 50.71614 7.36673 24644 ft 425 kts 319°
2026-05-04 18:04 50.73809 7.33564 24990 ft 422 kts 309°
2026-05-04 18:04 50.75537 7.29854 25336 ft 417 kts 294°
2026-05-04 18:04 50.77988 7.21607 26040 ft 419 kts 290°
2026-05-04 18:05 50.79210 7.17399 26409 ft 420 kts 290°
2026-05-04 18:05 50.80425 7.13181 26780 ft 422 kts 290°
2026-05-04 18:05 50.81641 7.08939 27142 ft 424 kts 289°
2026-05-04 18:05 50.82856 7.04679 27517 ft 426 kts 289°
2026-05-04 18:06 50.85314 6.96050 28141 ft 432 kts 288°
2026-05-04 18:06 50.86529 6.91780 28482 ft 434 kts 288°
2026-05-04 18:06 50.87771 6.87407 28791 ft 436 kts 288°
2026-05-04 18:07 50.89022 6.83008 29128 ft 437 kts 288°
2026-05-04 18:07 50.90275 6.78603 29439 ft 439 kts 288°
2026-05-04 18:07 50.91531 6.74172 29748 ft 441 kts 288°
2026-05-04 18:07 50.92781 6.69740 30038 ft 442 kts 287°
2026-05-04 18:08 50.94038 6.65263 30284 ft 444 kts 287°
2026-05-04 18:08 50.95282 6.60829 30559 ft 444 kts 287°
2026-05-04 18:08 50.96542 6.56333 30906 ft 444 kts 287°
2026-05-04 18:08 50.97803 6.51833 31216 ft 444 kts 287°
2026-05-04 18:09 51.00303 6.42878 31829 ft 443 kts 287°
2026-05-04 18:09 51.02377 6.35412 32357 ft 442 kts 287°
2026-05-04 18:10 51.03619 6.30937 32663 ft 441 kts 287°
2026-05-04 18:10 51.04862 6.26462 32990 ft 441 kts 287°
2026-05-04 18:10 51.06083 6.22063 33296 ft 440 kts 287°
2026-05-04 18:10 51.07315 6.17607 33615 ft 439 kts 288°
2026-05-04 18:11 51.08544 6.13150 33931 ft 439 kts 288°
2026-05-04 18:11 51.09767 6.08689 34169 ft 440 kts 288°
2026-05-04 18:11 51.10990 6.04212 34414 ft 440 kts 288°
2026-05-04 18:11 51.12213 5.99730 34657 ft 440 kts 288°
2026-05-04 18:12 51.13430 5.95270 34900 ft 440 kts 288°
2026-05-04 18:12 51.14649 5.90801 35149 ft 440 kts 288°
2026-05-04 18:12 51.15848 5.86389 35360 ft 440 kts 288°
2026-05-04 18:12 51.17069 5.81890 35586 ft 440 kts 288°
2026-05-04 18:13 51.18289 5.77395 35798 ft 440 kts 288°
2026-05-04 18:13 51.19504 5.72919 35960 ft 440 kts 288°
2026-05-04 18:14 51.23139 5.59476 35978 ft 440 kts 289°
2026-05-04 18:14 51.25530 5.50551 35982 ft 440 kts 288°
2026-05-04 18:15 51.30324 5.32585 35984 ft 440 kts 288°
2026-05-04 18:16 51.32723 5.23546 36000 ft 441 kts 289°
2026-05-04 18:16 51.35100 5.14539 35992 ft 442 kts 289°
2026-05-04 18:17 51.38687 5.00906 35993 ft 443 kts 289°
2026-05-04 18:18 51.42262 4.87231 35993 ft 443 kts 288°
2026-05-04 18:18 51.44620 4.78151 36021 ft 443 kts 289°
2026-05-04 18:19 51.48178 4.64383 36009 ft 444 kts 289°
2026-05-04 18:19 51.50529 4.55250 36008 ft 444 kts 289°
2026-05-04 18:20 51.52885 4.46070 36006 ft 444 kts 288°
2026-05-04 18:20 51.55236 4.36880 35991 ft 444 kts 288°
2026-05-04 18:21 51.57567 4.27699 36005 ft 443 kts 288°
2026-05-04 18:21 51.59880 4.18551 35994 ft 444 kts 288°
2026-05-04 18:22 51.62202 4.09338 36010 ft 444 kts 288°
2026-05-04 18:22 51.64518 4.00142 36016 ft 444 kts 288°
2026-05-04 18:23 51.66833 3.90907 36011 ft 444 kts 288°
2026-05-04 18:23 51.69116 3.81731 36024 ft 443 kts 288°
2026-05-04 18:24 51.71417 3.72429 36024 ft 443 kts 288°
2026-05-04 18:24 51.73678 3.63255 36027 ft 443 kts 288°
2026-05-04 18:25 51.75963 3.53967 36032 ft 443 kts 288°
2026-05-04 18:25 51.78220 3.44759 36043 ft 443 kts 288°
2026-05-04 18:26 51.80481 3.35483 36047 ft 442 kts 288°
2026-05-04 18:26 51.82729 3.26208 36049 ft 442 kts 288°
2026-05-04 18:27 51.84384 3.16782 36048 ft 436 kts 273°
2026-05-04 18:27 51.84261 3.07076 36044 ft 430 kts 261°
2026-05-04 18:28 51.83626 2.97421 36044 ft 431 kts 261°
2026-05-04 18:28 51.83000 2.87829 36050 ft 431 kts 261°
2026-05-04 18:29 51.82359 2.78166 36045 ft 431 kts 261°
2026-05-04 18:29 51.81703 2.68576 36044 ft 432 kts 261°
2026-05-04 18:30 51.80705 2.54067 36043 ft 432 kts 261°
2026-05-04 18:31 51.80037 2.44462 36041 ft 433 kts 261°
2026-05-04 18:31 51.79350 2.34744 36046 ft 434 kts 261°
2026-05-04 18:32 51.78668 2.25281 36039 ft 435 kts 261°
2026-05-04 18:32 51.78318 2.20421 35683 ft 437 kts 261°
2026-05-04 18:32 51.77993 2.15485 34688 ft 444 kts 262°
2026-05-04 18:32 51.77697 2.10497 33827 ft 447 kts 262°
2026-05-04 18:33 51.77420 2.05495 32900 ft 448 kts 262°
2026-05-04 18:33 51.77148 2.00491 32128 ft 445 kts 262°
2026-05-04 18:33 51.76871 1.95504 31299 ft 445 kts 262°
2026-05-04 18:33 51.76585 1.90552 30600 ft 442 kts 262°
2026-05-04 18:34 51.76292 1.85679 29957 ft 438 kts 262°
2026-05-04 18:34 51.75992 1.80810 29155 ft 430 kts 262°
2026-05-04 18:34 51.75695 1.76060 27817 ft 422 kts 262°
2026-05-04 18:34 51.75401 1.71385 26527 ft 414 kts 262°
2026-05-04 18:35 51.75110 1.66810 25404 ft 404 kts 262°
2026-05-04 18:35 51.74834 1.62454 25113 ft 375 kts 262°
2026-05-04 18:35 51.74577 1.58369 24648 ft 359 kts 262°
2026-05-04 18:35 51.74320 1.54320 24108 ft 372 kts 262°
2026-05-04 18:36 51.74054 1.50154 23533 ft 373 kts 262°
2026-05-04 18:36 51.73789 1.45992 22920 ft 372 kts 262°
2026-05-04 18:36 51.73522 1.41850 22368 ft 371 kts 262°
2026-05-04 18:36 51.73297 1.38383 21903 ft 370 kts 262°
2026-05-04 18:37 51.73058 1.34778 21422 ft 368 kts 262°
2026-05-04 18:37 51.72788 1.30681 20869 ft 366 kts 262°
2026-05-04 18:37 51.72520 1.26612 20324 ft 363 kts 262°
2026-05-04 18:37 51.72258 1.22635 19787 ft 361 kts 262°
2026-05-04 18:38 51.71990 1.18602 19247 ft 359 kts 262°
2026-05-04 18:38 51.71720 1.14600 18708 ft 357 kts 261°
2026-05-04 18:38 51.71450 1.10622 18153 ft 355 kts 262°
2026-05-04 18:38 51.71181 1.06677 17591 ft 352 kts 262°
2026-05-04 18:39 51.70911 1.02774 17066 ft 350 kts 263°
2026-05-04 18:39 51.70642 0.98885 16545 ft 347 kts 263°
2026-05-04 18:39 51.70378 0.95042 16024 ft 345 kts 263°
2026-05-04 18:39 51.70118 0.91247 15511 ft 343 kts 263°
2026-05-04 18:40 51.69856 0.87440 14999 ft 341 kts 263°
2026-05-04 18:40 51.69593 0.83651 14493 ft 339 kts 263°
2026-05-04 18:40 51.69330 0.79902 13984 ft 337 kts 263°
2026-05-04 18:40 51.69064 0.76156 13440 ft 335 kts 263°
2026-05-04 18:41 51.68799 0.72440 12933 ft 332 kts 264°
2026-05-04 18:41 51.68538 0.68760 12438 ft 329 kts 264°
2026-05-04 18:41 51.68279 0.65103 11949 ft 326 kts 263°
2026-05-04 18:41 51.68023 0.61496 11455 ft 323 kts 263°
2026-05-04 18:42 51.67765 0.57921 11064 ft 317 kts 263°
2026-05-04 18:42 51.67514 0.54503 10940 ft 303 kts 263°
2026-05-04 18:42 51.67267 0.51169 10725 ft 293 kts 263°
2026-05-04 18:42 51.67028 0.47929 10441 ft 287 kts 263°
2026-05-04 18:43 51.66801 0.44812 10202 ft 283 kts 263°
2026-05-04 18:43 51.66574 0.41665 9800 ft 282 kts 263°
2026-05-04 18:43 51.66347 0.38510 9348 ft 282 kts 263°
2026-05-04 18:43 51.66126 0.35477 8936 ft 280 kts 263°
2026-05-04 18:44 51.65892 0.32319 8553 ft 277 kts 263°
2026-05-04 18:44 51.65814 0.31282 8385 ft 278 kts 263°
2026-05-04 18:44 51.65430 0.26190 8017 ft 271 kts 263°
2026-05-04 18:44 51.65205 0.23228 8021 ft 266 kts 263°
2026-05-04 18:45 51.64986 0.20313 8028 ft 250 kts 263°
2026-05-04 18:45 51.64782 0.17598 8028 ft 241 kts 263°
2026-05-04 18:45 51.64574 0.14855 8034 ft 250 kts 263°
2026-05-04 18:45 51.64330 0.12086 8029 ft 246 kts 261°
2026-05-04 18:46 51.64076 0.09446 8025 ft 238 kts 261°
2026-05-04 18:46 51.63818 0.06791 8029 ft 240 kts 261°
2026-05-04 18:46 51.63560 0.04143 8035 ft 238 kts 261°
2026-05-04 18:46 51.63300 0.01508 8029 ft 238 kts 261°
2026-05-04 18:47 51.63041 -0.01125 8049 ft 238 kts 261°
2026-05-04 18:47 51.62791 -0.03744 8047 ft 240 kts 261°
2026-05-04 18:47 51.62547 -0.06407 8045 ft 240 kts 261°
2026-05-04 18:47 51.62306 -0.09037 8052 ft 240 kts 261°
2026-05-04 18:48 51.62062 -0.11689 8056 ft 241 kts 261°
2026-05-04 18:48 51.61814 -0.14364 8052 ft 239 kts 261°
2026-05-04 18:48 51.61568 -0.17016 8023 ft 240 kts 261°
2026-05-04 18:48 51.61321 -0.19669 7713 ft 238 kts 261°
2026-05-04 18:49 51.61078 -0.22285 7415 ft 235 kts 261°
2026-05-04 18:49 51.60837 -0.24868 7120 ft 233 kts 261°
2026-05-04 18:49 51.60591 -0.27457 7050 ft 236 kts 261°
2026-05-04 18:49 51.60344 -0.30041 7026 ft 236 kts 261°
2026-05-04 18:50 51.60095 -0.32653 7027 ft 239 kts 261°
2026-05-04 18:50 51.59842 -0.35301 7028 ft 239 kts 261°
2026-05-04 18:50 51.59591 -0.37934 7030 ft 238 kts 261°
2026-05-04 18:50 51.59340 -0.40562 7027 ft 237 kts 261°
2026-05-04 18:51 51.59174 -0.42301 7029 ft 238 kts 261°
2026-05-04 18:51 51.58922 -0.44917 7027 ft 236 kts 261°
2026-05-04 18:51 51.58670 -0.47536 7029 ft 236 kts 261°
2026-05-04 18:51 51.58339 -0.50983 6757 ft 235 kts 261°
2026-05-04 18:52 51.58169 -0.52747 6523 ft 234 kts 261°
2026-05-04 18:52 51.57923 -0.55295 6226 ft 233 kts 261°
2026-05-04 18:52 51.57670 -0.57880 5944 ft 234 kts 261°
2026-05-04 18:52 51.57413 -0.60476 5660 ft 235 kts 261°
2026-05-04 18:53 51.57155 -0.63062 5375 ft 233 kts 261°
2026-05-04 18:53 51.56893 -0.65613 5099 ft 230 kts 261°
2026-05-04 18:53 51.56635 -0.68115 4841 ft 223 kts 261°
2026-05-04 18:53 51.56379 -0.70504 4593 ft 217 kts 261°
2026-05-04 18:54 51.56120 -0.72885 4331 ft 216 kts 261°
2026-05-04 18:54 51.55862 -0.75262 4093 ft 216 kts 261°
2026-05-04 18:54 51.55605 -0.77645 3892 ft 216 kts 261°
2026-05-04 18:54 51.55244 -0.79997 3685 ft 218 kts 243°
2026-05-04 18:55 51.54249 -0.81713 3482 ft 208 kts 207°
2026-05-04 18:55 51.51543 -0.82447 3109 ft 196 kts 181°
2026-05-04 18:55 51.50177 -0.82564 3015 ft 196 kts 174°
2026-05-04 18:56 51.48960 -0.81814 3002 ft 187 kts 136°
2026-05-04 18:56 51.48112 -0.80263 3009 ft 183 kts 118°
2026-05-04 18:56 51.47662 -0.78402 3010 ft 181 kts 99°
2026-05-04 18:56 51.47599 -0.76394 3014 ft 180 kts 87°
2026-05-04 18:57 51.47613 -0.74384 3011 ft 180 kts 88°
2026-05-04 18:57 51.47626 -0.72371 2962 ft 179 kts 88°
2026-05-04 18:57 51.47639 -0.70355 2792 ft 180 kts 87°
2026-05-04 18:57 51.47650 -0.68342 2558 ft 179 kts 87°
2026-05-04 18:58 51.47662 -0.66358 2323 ft 178 kts 88°
2026-05-04 18:58 51.47673 -0.64367 2081 ft 177 kts 86°
2026-05-04 18:58 51.47683 -0.62399 1842 ft 176 kts 87°
2026-05-04 18:58 51.47693 -0.60458 1610 ft 167 kts 86°
2026-05-04 18:59 51.47700 -0.58726 1393 ft 150 kts 86°
2026-05-04 18:59 51.47709 -0.57092 1195 ft 144 kts 86°
2026-05-04 18:59 51.47716 -0.55507 998 ft 141 kts 85°
2026-05-04 18:59 51.47724 -0.53922 801 ft 142 kts 86°
2026-05-04 19:00 51.47731 -0.52351 605 ft 142 kts 87°
2026-05-04 19:00 51.47742 -0.50756 426 ft 142 kts 87°
2026-05-04 19:00 51.47740 -0.49173 202 ft 141 kts 88°
2026-05-04 19:00 51.47770 -0.47640 88 ft 121 kts 91°
2026-05-04 19:01 51.47761 -0.46778 89 ft 36 kts 89°
2026-05-04 19:01 51.47764 -0.46423 89 ft 25 kts 91°
2026-05-04 19:01 51.47744 -0.46225 87 ft 16 kts 116°
2026-05-04 19:01 51.47679 -0.46118 86 ft 8 kts 143°
2026-05-04 19:02 51.47654 -0.46089 90 ft 1 kts 145°
2026-05-04 19:02 51.47653 -0.46087 87 ft 0 kts 145°
2026-05-04 19:03 51.47650 -0.46085 87 ft 2 kts 146°
2026-05-04 19:03 51.47624 -0.46078 87 ft 6 kts 184°
2026-05-04 19:03 51.47594 -0.46144 90 ft 10 kts 266°
2026-05-04 19:04 51.47593 -0.46285 86 ft 15 kts 270°
2026-05-04 19:04 51.47591 -0.46474 86 ft 19 kts 269°
2026-05-04 19:04 51.47589 -0.46698 87 ft 22 kts 270°
2026-05-04 19:04 51.47587 -0.46951 86 ft 24 kts 267°
2026-05-04 19:05 51.47582 -0.47238 88 ft 27 kts 270°
2026-05-04 19:05 51.47581 -0.47503 90 ft 16 kts 270°
2026-05-04 19:05 51.47581 -0.47691 87 ft 18 kts 269°
2026-05-04 19:05 51.47580 -0.47897 90 ft 19 kts 269°
2026-05-04 19:06 51.47579 -0.48119 88 ft 21 kts 270°
2026-05-04 19:06 51.47578 -0.48357 87 ft 21 kts 270°
2026-05-04 19:06 51.47540 -0.48476 87 ft 11 kts 185°
2026-05-04 19:06 51.47456 -0.48472 88 ft 13 kts 181°
2026-05-04 19:07 51.47361 -0.48474 86 ft 15 kts 179°
2026-05-04 19:07 51.47254 -0.48473 86 ft 16 kts 179°
2026-05-04 19:07 51.47135 -0.48472 87 ft 18 kts 180°
2026-05-04 19:07 51.47008 -0.48471 89 ft 17 kts 179°
2026-05-04 19:08 51.46926 -0.48470 88 ft 7 kts 179°
2026-05-04 19:08 51.46896 -0.48476 87 ft 4 kts 198°
2026-05-04 19:08 51.46879 -0.48519 86 ft 5 kts 258°
2026-05-04 19:08 51.46877 -0.48582 86 ft 5 kts 269°
2026-05-04 19:09 51.46878 -0.48630 86 ft 1 kts 276°
2026-05-04 19:09 51.46883 -0.48645 86 ft 2 kts 306°
2026-05-04 19:09 51.46897 -0.48652 89 ft 1 kts 351°
2026-05-04 19:09 51.46905 -0.48648 86 ft 1 kts 20°
2026-05-04 19:10 51.46916 -0.48645 86 ft 2 kts
2026-05-04 19:10 51.46920 -0.48647 90 ft 1 kts 354°
2026-05-04 19:10 51.46923 -0.48648 86 ft 0 kts 351°
2026-05-04 19:10 51.46926 -0.48647 86 ft 0 kts 359°
2026-05-04 19:11 51.46927 -0.48647 86 ft 0 kts 359°